Theta_e
309 310 310 310 310 311 311 311 310 310 309 308 307 308 311 312 313 313 313 313 315 315 314 314 316 316 315 315 316 312 311 313 315 318 317 314 315 314 312 314 313 312 311 310 311
310 310 310 310 310 311 311 311 311 310 310 309 308 307 309 312 312 313 313 314 315 315 315 314 313 313 312 316 316 315 311 311 312 316 315 315 313 314 314 312 313 313 309 309 309
311 311 311 310 310 310 310 310 310 310 310 309 308 307 308 312 316 314 317 314 315 314 314 315 315 313 315 315 316 315 315 314 316 316 314 314 314 312 313 312 310 311 309 305 305
311 311 311 311 311 311 311 311 311 310 310 309 308 307 308 313 308 316 314 316 314 312 315 314 313 314 315 316 315 317 314 314 315 316 315 314 313 313 310 314 311 308 308 305 304
312 311 310 309 309 311 311 311 311 311 310 309 307 307 310 315 312 312 314 314 312 311 313 311 313 314 315 314 316 316 315 315 314 314 312 313 313 312 310 309 308 309 306 306 305
314 314 314 312 310 306 306 307 310 311 311 310 308 307 311 308 311 314 314 312 311 312 312 312 311 312 314 315 315 314 315 314 313 313 313 314 312 313 313 310 308 308 306 305 306
315 314 314 314 312 310 308 306 305 305 309 309 307 309 316 308 311 313 313 311 311 312 311 312 313 313 313 315 314 314 315 312 314 312 312 311 312 312 313 311 310 309 307 305 305
315 315 315 315 314 311 310 309 307 305 305 307 308 312 308 311 312 313 312 310 310 312 311 313 313 313 314 312 312 314 313 314 312 311 312 312 314 313 310 310 310 308 308 306 306
315 315 315 315 315 311 308 309 308 306 306 309 312 314 311 312 311 312 311 311 310 310 311 312 313 311 313 312 310 310 309 310 312 311 312 311 313 313 310 308 309 309 306 308 307
316 316 316 316 316 311 309 309 308 309 313 314 317 314 310 311 313 312 311 311 310 310 310 311 309 310 311 309 311 309 311 311 312 312 312 312 312 313 311 309 307 307 307 305 307
317 317 317 317 317 312 310 311 307 307 314 308 310 309 312 313 313 310 310 311 311 310 309 310 310 310 310 311 311 310 309 310 310 310 313 312 313 313 313 310 308 308 310 309 305
318 318 318 318 317 313 311 311 309 309 305 307 305 309 311 312 312 310 310 309 311 311 309 311 310 309 309 309 310 311 312 312 311 311 310 311 312 312 311 312 312 311 311 310 310
320 319 318 319 317 314 311 308 309 311 309 308 307 306 306 311 311 311 308 308 309 310 309 311 310 311 310 310 311 310 311 312 312 310 308 308 311 310 309 311 312 311 311 311 310
322 321 320 319 316 315 312 310 308 310 303 305 309 308 310 310 308 308 307 309 309 310 308 309 310 311 311 312 311 312 310 311 311 311 312 309 313 310 309 309 309 310 310 310 310
323 322 321 318 317 315 314 311 307 306 320 310 309 310 310 307 307 307 306 309 309 310 310 309 311 310 311 312 310 313 310 310 310 309 310 312 312 311 309 310 310 310 309 309 310
322 322 320 317 316 319 315 309 308 310 319 309 308 310 310 310 309 307 307 306 307 309 308 309 309 309 309 309 308 309 311 310 307 308 314 311 311 311 310 311 310 310 310 309 309
321 322 318 318 315 316 313 309 324 322 312 312 308 310 309 309 309 307 307 308 308 309 307 307 307 308 309 311 309 310 310 311 310 311 314 308 310 313 310 309 309 309 308 308 308
317 319 319 319 318 314 311 319 327 321 314 313 310 309 310 309 310 308 307 307 306 306 306 308 310 307 307 309 309 309 310 312 310 313 313 307 311 311 309 309 308 307 308 307 304
310 315 317 319 318 314 315 324 326 324 317 317 319 317 311 309 309 310 307 307 307 306 309 308 309 308 307 308 309 308 310 310 310 295 306 310 309 310 307 308 307 307 306 302 302
309 315 316 316 318 313 316 323 322 319 320 320 323 320 315 311 310 311 310 308 309 306 307 309 310 309 307 306 307 308 307 311 310 311 309 311 310 312 311 310 308 306 305 303 302
308 312 313 316 313 313 318 319 318 317 318 319 320 321 318 318 314 316 315 311 308 310 307 309 312 311 308 307 310 307 308 308 309 313 316 317 314 313 311 307 306 307 305 303 302
308 311 312 313 315 314 318 317 315 316 315 317 316 318 320 319 321 322 322 319 310 309 311 311 314 317 315 310 306 306 309 310 313 314 312 314 315 313 313 311 310 310 305 304 302
309 311 311 313 316 317 314 314 315 316 316 316 317 315 315 317 319 317 317 316 315 315 315 313 317 320 317 314 312 314 312 309 310 311 313 315 315 312 311 310 309 303 304 306 303
303 306 309 310 312 314 314 314 315 312 313 314 315 314 315 316 315 316 316 315 312 313 315 315 317 319 320 318 313 312 311 311 310 312 313 312 311 310 311 311 311 310 310 309 307
299 302 304 309 310 311 312 312 312 312 312 313 314 314 313 315 314 314 310 306 306 312 312 313 317 316 316 316 315 315 315 315 314 311 311 311 312 311 310 311 312 310 310 307 307
297 299 298 300 300 305 309 310 311 311 311 312 312 303 305 305 306 306 307 304 304 305 305 305 311 313 315 314 314 315 314 314 314 314 315 314 315 313 312 312 312 312 312 311 311
295 297 298 297 298 298 298 302 303 299 302 305 299 297 299 300 297 297 297 298 299 301 301 303 307 308 309 310 312 314 315 314 313 313 314 316 315 312 312 312 311 310 308 304 301
Wind_Speed
8 8 8 8 9 10 10 10 10 11 11 11 12 11 9 8 9 10 7 8 6 10 8 8 6 4 2 1 2 3 3 3 5 3 4 1 3 1 1 3 3 6 4 3 15
9 9 8 8 8 9 9 10 10 10 11 12 12 13 11 9 8 13 16 9 10 13 12 12 4 5 0 2 1 4 3 8 6 2 4 3 5 4 2 3 4 5 0 5 29
11 12 12 11 10 10 11 11 11 11 12 12 12 13 11 9 4 7 2 17 12 13 9 9 4 6 3 3 4 5 6 5 6 4 4 3 3 5 5 7 9 10 6 9 15
13 13 13 14 14 13 13 13 13 13 13 13 13 12 8 3 5 2 1 10 16 14 11 7 4 5 4 6 6 4 10 7 6 3 3 4 1 5 9 17 6 12 6 10 14
15 15 15 14 14 15 16 15 15 15 15 15 15 13 3 0 10 10 6 11 16 16 16 7 6 6 5 5 2 7 6 6 7 7 6 3 10 8 10 13 10 7 8 16 16
14 16 17 16 14 13 14 16 16 16 15 15 14 11 1 4 7 8 9 14 14 18 11 9 7 7 4 5 6 3 4 7 6 7 5 5 7 5 20 4 13 11 13 13 18
14 15 17 19 17 16 16 15 16 17 16 15 13 5 3 15 8 9 12 13 16 14 4 8 5 3 0 5 3 4 8 8 11 7 9 6 10 12 26 3 10 12 11 13 20
13 14 16 19 21 20 18 18 16 16 16 14 8 6 7 7 11 15 14 8 10 12 5 1 5 2 2 4 6 4 2 5 0 6 4 9 16 14 10 8 15 13 12 10 15
12 14 16 19 23 25 20 18 18 17 10 5 6 6 8 2 6 13 14 4 8 4 3 3 3 3 2 2 4 2 6 8 14 11 6 8 12 13 6 9 12 12 11 13 15
12 14 15 18 23 24 22 17 7 1 5 5 2 1 4 6 5 5 14 9 3 6 3 3 4 2 1 4 8 8 6 6 8 3 4 8 15 15 9 8 12 11 11 11 15
12 13 15 18 22 19 22 3 4 2 2 8 5 5 2 4 7 9 9 11 5 4 6 4 4 10 21 17 15 2 6 7 8 6 5 10 17 19 21 11 12 15 18 17 16
13 14 15 16 20 15 10 5 2 1 7 9 12 9 19 5 4 4 11 7 6 8 6 2 11 17 7 6 9 12 17 21 19 19 7 16 23 17 13 19 19 17 20 21 18
14 14 14 15 17 7 4 3 0 3 2 9 6 5 6 12 9 6 12 4 5 7 10 15 10 12 12 9 11 13 14 19 17 6 6 11 22 15 11 21 23 22 21 20 20
16 14 14 13 6 9 2 5 0 4 2 7 4 3 1 5 2 4 4 5 3 10 7 9 10 14 7 8 15 16 13 15 14 3 11 3 26 6 7 14 13 17 18 18 20
19 17 14 8 10 5 3 5 1 4 6 4 2 1 2 5 1 4 2 3 4 4 5 9 3 5 10 20 10 13 5 6 3 5 5 7 8 4 11 11 13 16 14 17 20
11 13 14 9 11 9 6 5 3 3 8 5 2 2 3 1 0 1 3 3 1 4 6 12 3 6 10 5 8 1 3 4 4 2 12 12 11 1 6 10 6 10 16 16 17
8 10 13 12 3 5 4 1 2 6 1 5 5 4 4 5 4 6 5 7 6 3 5 3 7 5 5 4 3 4 5 4 4 1 12 9 9 23 6 6 11 13 13 15 16
5 9 13 14 16 7 4 1 11 8 6 2 2 2 6 6 6 6 5 4 6 1 3 2 14 9 5 11 9 11 11 7 8 12 19 4 10 11 13 11 10 12 12 13 11
10 8 10 15 16 13 3 6 4 4 4 4 5 4 6 5 6 5 6 5 8 15 9 5 14 2 5 3 9 4 7 16 2 1 1 7 14 13 7 8 8 11 12 12 12
5 4 8 16 21 12 3 18 9 6 3 3 6 7 5 5 5 4 6 3 4 11 10 5 12 7 2 2 3 7 4 2 2 3 7 9 6 14 16 14 10 10 12 12 9
4 2 7 22 23 3 11 8 6 5 2 6 5 10 9 7 5 9 7 4 5 2 9 2 2 18 1 7 12 1 4 4 3 5 14 18 15 28 16 9 7 11 9 9 10
4 4 9 29 5 3 13 6 7 7 6 8 4 14 18 17 19 21 21 16 2 5 6 5 6 10 25 14 3 4 12 12 12 13 11 17 19 27 32 25 19 24 15 7 6
3 3 14 9 8 11 5 7 8 15 14 5 8 9 13 21 18 24 23 20 19 8 6 6 3 6 3 9 13 13 22 16 17 18 25 22 21 28 24 24 17 12 12 14 9
2 3 4 3 7 7 12 16 15 6 14 14 16 11 17 22 22 24 28 13 9 12 16 10 18 17 21 21 11 8 11 22 22 17 24 23 25 23 32 28 31 18 19 18 13
1 3 2 3 10 12 11 5 13 18 7 2 6 14 14 10 9 8 7 9 11 16 7 9 22 22 24 30 29 30 30 27 26 27 25 26 30 25 28 32 31 16 18 8 12
2 1 3 4 5 3 5 14 19 12 7 10 9 5 5 3 5 7 6 5 5 6 7 7 7 12 20 22 25 28 29 32 34 36 36 36 34 28 29 27 29 26 24 19 15
3 2 1 3 2 1 3 3 2 5 4 6 5 7 9 5 8 12 14 16 16 18 21 11 9 11 23 19 18 21 26 33 33 33 28 30 34 26 27 26 24 20 14 16 15
Wind_Direction
357 1 3 2 1 360 1 3 3 2 360 357 353 347 333 307 279 266 244 231 216 205 173 161 170 179 172 297 205 97 61 251 251 219 265 358 239 307 318 136 226 208 179 304 167
336 340 341 342 341 341 341 341 342 345 345 345 344 342 335 321 289 252 255 225 215 188 175 168 169 150 74 236 217 119 152 226 219 234 240 236 197 227 202 214 245 271 75 130 162
326 328 328 327 327 326 326 326 327 329 332 334 337 337 332 330 322 244 276 219 207 193 198 185 146 142 217 167 205 185 215 222 263 248 204 228 244 201 202 248 216 212 201 163 169
329 328 325 325 321 317 315 316 317 319 321 325 328 328 321 336 290 271 286 178 197 198 184 180 157 172 213 213 203 212 239 220 264 250 273 231 241 244 197 242 210 228 177 169 183
357 353 343 328 312 308 307 307 308 311 314 318 323 321 310 242 249 263 233 185 198 199 197 175 173 176 202 208 228 226 248 228 235 269 262 296 245 239 251 247 243 248 176 189 198
344 350 352 346 328 314 300 296 294 295 298 304 312 311 165 247 260 251 215 195 198 200 204 184 204 207 234 228 191 258 263 268 267 240 250 210 269 145 264 223 237 228 219 207 206
337 341 348 350 340 326 312 301 293 284 282 286 295 259 183 235 242 240 218 215 207 207 195 218 221 154 263 288 285 301 306 307 251 231 231 157 284 226 248 177 252 248 234 217 220
326 333 340 342 341 332 314 303 293 284 278 279 270 188 241 253 254 222 214 226 219 219 217 248 187 169 195 307 356 311 333 312 302 141 235 148 263 252 247 204 252 249 255 239 236
317 325 333 335 337 334 320 307 294 288 277 255 164 172 260 220 205 230 218 215 195 162 121 108 132 174 342 99 351 282 244 225 293 197 162 183 246 270 239 200 248 260 250 251 252
313 319 327 334 337 338 333 316 312 115 122 132 95 32 261 230 192 194 197 177 136 113 80 116 62 165 340 128 230 222 224 253 244 242 186 222 248 272 264 201 238 257 267 254 254
306 315 322 331 337 342 341 4 9 17 204 194 204 230 258 180 172 189 171 153 112 103 174 196 136 207 222 212 234 206 228 243 256 247 225 230 236 248 265 263 253 254 254 252 245
299 307 316 329 337 342 349 64 108 262 303 261 248 255 255 180 211 228 163 151 152 198 152 160 214 225 235 210 222 243 257 262 270 264 214 260 259 249 249 261 257 248 258 252 251
288 297 306 322 328 340 11 69 144 180 240 285 228 214 239 179 225 221 155 151 171 183 201 221 225 214 218 230 241 229 233 253 256 301 249 289 271 251 244 250 264 263 250 258 248
279 283 290 311 307 326 266 344 228 156 355 272 263 279 5 163 260 27 191 164 197 230 208 239 240 217 189 217 216 257 227 254 261 283 274 126 294 196 231 244 243 252 257 245 248
269 266 269 269 297 292 311 316 242 122 299 250 218 336 47 144 128 8 54 28 211 196 165 242 209 190 222 234 181 253 167 233 217 215 338 182 266 160 203 250 247 253 248 257 259
280 269 247 240 247 252 283 290 181 55 250 292 175 140 101 85 20 65 93 43 282 255 226 241 201 189 211 194 206 96 59 37 65 122 265 203 210 98 180 213 241 252 254 249 254
268 261 228 224 249 237 255 344 285 218 323 247 216 171 175 193 212 179 165 165 199 264 240 312 227 214 163 225 141 132 92 298 320 9 255 191 216 251 274 216 215 238 256 253 252
288 254 232 226 223 203 68 256 225 186 229 333 112 115 190 158 239 183 152 225 242 229 320 262 290 176 179 201 193 207 189 182 206 253 270 109 249 265 220 237 228 236 257 269 281
287 266 233 229 213 192 111 227 248 218 202 228 324 251 221 237 210 142 215 226 212 184 194 209 268 166 198 163 153 175 177 233 317 108 5 248 275 287 229 269 310 278 280 264 264
304 257 222 240 201 157 193 248 245 229 261 260 231 205 209 189 186 176 189 193 226 187 228 279 268 230 152 121 277 186 165 115 184 206 248 268 250 260 284 285 290 295 301 298 312
252 241 221 203 165 178 228 232 223 218 192 220 238 250 249 253 239 250 233 222 220 197 179 76 325 269 168 211 235 185 247 229 184 197 246 261 264 278 278 274 261 298 288 293 305
250 237 192 159 184 209 233 216 228 242 239 253 250 261 264 271 261 257 255 244 227 222 201 170 176 238 263 261 301 271 265 242 237 246 235 254 256 263 269 270 272 288 289 296 282
241 249 187 195 223 225 213 234 233 247 237 225 245 232 252 255 268 256 256 254 250 232 237 182 220 267 261 289 251 233 247 241 255 258 251 254 253 257 269 271 262 242 264 285 282
297 258 197 217 249 256 244 248 245 232 250 241 254 260 272 270 261 270 271 272 235 232 239 242 249 239 254 264 278 267 224 238 242 255 254 247 260 262 271 265 271 265 269 273 272
252 243 326 215 234 248 248 274 268 266 238 171 243 245 268 272 295 298 326 9 348 317 276 244 241 235 244 251 254 257 265 259 252 247 250 254 251 248 256 270 276 281 284 278 280
244 295 333 288 299 274 247 238 257 269 259 252 248 22 323 269 323 310 336 17 286 312 327 314 287 297 283 272 257 250 248 252 261 260 260 261 260 261 260 266 277 279 282 286 278
269 356 313 270 334 96 229 266 304 37 267 250 11 337 292 302 327 298 287 271 252 268 277 268 273 283 279 288 297 278 259 259 258 261 257 259 257 267 268 263 270 297 360 26 13